[[{"header":{"parameterUnit":"m.s-1","parameterCategory":1,"la1":30.2991,"la2":30.254,"lo1":-89.0895,"lo2":-89.0444,"dy":0.0017,"dx":0.0017,"nx":28,"ny":28,"refTime":"2023-03-30T21:00:00:Z","depth":0,"parameterNumber":2,"parameterNumberName":"U-component_of_WINDS"},"data":[0,0,0,0,0,0,0,0,0,0,0,0,0,0,0,0,0,0,0,0,0,0,0,0,0,0,0,0,0,0,0,0,0,0,0,0,0,0,0,0,0,0,0,0,0,0,0,0,0,0,0,0,0,0,0,0,0,0,-4.8176,-4.8177,0,-4.8319,-4.832,-4.8322,-4.8311,-4.8309,-4.8306,-4.8304,-4.8452,-4.8458,-4.8464,0,0,0,0,0,0,0,0,0,0,0,0,0,-4.7895,-4.79,-4.8175,-4.8177,-4.8179,-4.8319,-4.8321,-4.8322,-4.8311,-4.8308,-4.8306,-4.8303,-4.8451,-4.8458,-4.8465,0,0,0,0,0,0,0,0,0,0,0,0,0,-4.8025,-4.7902,-4.8175,-4.819,-4.8193,-4.8318,-4.8321,-4.8323,-4.8312,-4.8308,-4.8305,-4.8302,-4.8448,-4.8457,-4.8466,-4.8586,0,0,-4.8493,-4.8497,0,0,0,0,0,0,0,0,-4.8018,-4.8035,-4.8186,-4.8189,-4.8193,-4.8294,-4.8276,-4.8411,-4.8312,-4.8267,-4.8304,-4.8301,-4.8402,-4.8415,-4.8449,-4.8593,-4.8599,-4.8494,-4.8499,-4.8503,-4.8506,0,0,0,0,0,0,0,-4.8009,-4.8029,-4.8232,-4.8188,-4.8192,-4.8191,-4.8206,-4.8301,-4.8351,-4.827,-4.827,-4.8287,-4.8403,-4.844,-4.8452,-4.8601,-4.8494,-4.8501,-4.8507,-4.851,-4.8851,-4.8855,0,0,0,0,0,0,-4.7996,-4.8022,-4.8228,-4.8237,-4.8095,-4.8198,-4.8215,-4.8264,-4.835,-4.836,-4.829,-4.8286,-4.8427,-4.8442,-4.8457,-4.8603,-4.8503,-4.8511,-4.8516,-4.8848,-4.8852,-4.8856,0,0,0,0,0,0,-4.799,-4.8014,-4.8222,-4.8129,-4.8155,-4.8207,-4.8262,-4.8269,-4.8306,-4.8364,-4.8373,-4.8318,-4.8425,-4.8445,-4.8554,-4.8608,-4.8515,-4.8523,-4.8843,-4.8849,-4.8854,-4.8895,0,0,0,0,0,0,-4.7982,-4.8012,-4.8058,-4.813,-4.816,-4.8315,-4.8266,-4.8274,-4.8321,-4.8317,-4.8393,-4.8403,-4.8424,-4.8541,-4.8563,-4.8619,-4.853,-4.8839,-4.8846,-4.8852,-4.8889,-4.8901,-4.8912,0,0,0,0,0,-4.7972,-4.8064,-4.806,-4.8085,-4.8218,-4.8318,-4.8336,-4.8357,-4.8325,-4.8372,-4.841,-4.84,-4.8599,-4.8552,-4.8577,-4.8636,-4.8835,-4.8844,-4.8852,-4.8884,-4.8899,-4.8912,0,0,0,0,0,0,-4.7996,-4.8073,-4.807,-4.8188,-4.8247,-4.8316,-4.8375,-4.8373,-4.8442,-4.8436,-4.8461,-4.8478,-4.8587,-4.8623,-4.8569,-4.8757,-4.8713,-4.8727,-4.8729,-4.8744,-4.8755,-4.8743,-4.8538,0,0,0,0,0,-4.8016,-4.809,-4.8154,-4.8252,-4.8281,-4.8323,-4.8368,-4.838,-4.8442,-4.8466,-4.8512,-4.8573,-4.865,-4.8699,-4.8773,-4.8896,-4.8912,-4.8949,-4.896,-4.8969,-4.898,-4.9048,-4.9065,-4.8883,-4.8883,-4.8883,0,0,-4.8056,-4.8107,-4.8152,-4.8258,-4.8305,-4.8381,-4.8344,-4.8427,-4.8484,-4.8479,-4.8584,-4.8621,-4.8691,-4.8807,-4.8861,-4.884,-4.9034,-4.898,-4.8987,-4.8993,-4.9058,-4.9075,-4.909,-4.8889,-4.8888,-4.8887,0,0,-4.8167,-4.8214,-4.8301,-4.8349,-4.842,-4.8448,-4.8469,-4.8539,-4.8563,-4.8669,-4.8667,-4.8736,-4.8867,-4.8917,-4.8959,-4.9093,-4.9086,-4.9116,-4.9175,-4.924,-4.9254,-4.9267,-4.9314,-4.933,-4.9127,-4.9128,-4.9128,0,-4.8208,-4.8323,-4.8346,-4.8429,-4.8476,-4.8475,-4.8563,-4.8609,-4.8701,-4.8733,-4.871,-4.8874,-4.8921,-4.9049,-4.9082,-4.9117,-4.9141,-4.9106,-4.9251,-4.9264,-4.9276,-4.932,-4.9338,-4.9131,-4.913,-4.913,-4.913,0,-4.8369,-4.8449,-4.8511,-4.8599,-4.8653,-4.8739,-4.8775,-4.8827,-4.8835,-4.8866,-4.8974,-4.9031,-4.9116,-4.9148,-4.9157,-4.9278,-4.9263,-4.9245,-4.9201,-4.9296,-4.9338,-4.9355,-4.9135,-4.9134,-4.9133,-4.9132,0,0,-4.8498,-4.8598,-4.862,-4.8661,-4.874,-4.8803,-4.889,-4.8972,-4.9016,-4.9081,-4.9153,-4.9265,-4.9249,-4.9298,-4.9313,-4.9371,-4.9472,-4.9346,-4.9348,-4.9365,-4.9608,-4.9619,-4.9638,-4.9469,-4.9473,-4.9475,-4.9601,0,-4.8616,-4.8767,-4.8791,-4.8924,-4.8999,-4.9001,-4.9076,-4.9133,-4.9165,-4.9234,-4.9269,-4.9347,-4.9321,-4.935,-4.9408,-4.9447,-4.952,-4.9439,-4.9537,-4.954,-4.9516,-4.9661,-4.9673,-4.9789,-4.9618,-4.9621,-4.9623,0,-4.8774,-4.8842,-4.8982,-4.9052,-4.9085,-4.9152,-4.923,-4.9295,-4.9361,-4.938,-4.9435,-4.9444,-4.9534,-4.9488,-4.9613,-4.9557,-4.96,-4.9625,-4.9631,-4.9639,-4.9585,-4.9671,-4.9826,-4.9843,-4.9649,-4.9647,-4.9645,0,-4.8851,-4.8979,-4.9079,-4.9114,-4.9199,-4.9246,-4.9283,-4.9346,-4.9395,-4.9464,-4.9496,-4.9575,-4.9618,-4.9679,-4.9709,-4.9673,-4.9832,-4.9789,-4.985,-4.985,-4.9882,-4.9879,-5.0044,-4.9913,-4.9912,-4.9912,-4.9912,0,-4.898,-4.9066,-4.9115,-4.9176,-4.9273,-4.9301,-4.9395,-4.9432,-4.9489,-4.9558,-4.9566,-4.9631,-4.9667,-4.9738,-4.9763,-4.9863,-4.9883,-4.99,-4.9905,-4.9899,-4.9896,-4.9925,-4.9917,-4.9917,-4.9916,-4.9915,-4.9914,0,-4.9082,-4.9118,-4.9228,-4.93,-4.932,-4.9387,-4.9449,-4.951,-4.9542,-4.963,-4.9652,-4.9703,-4.9787,-4.9824,-4.9928,-4.9944,-5.0057,-5.0058,-5.0035,-5.0036,-5.0095,-5.0088,-5.0282,-5.0309,-5.0162,-5.0163,-5.0164,0,-4.916,-4.9226,-4.9305,-4.9351,-4.939,-4.9466,-4.9515,-4.9546,-4.9598,-4.9679,-4.9729,-4.9814,-4.9882,-5.0017,-5.0063,-5.0143,-5.0144,-5.0207,-5.0156,-5.0147,-5.0143,-5.0138,-5.0145,-5.0215,-5.0217,-5.0218,-5.0219,0,-4.9295,-4.931,-4.9381,-4.9459,-4.9517,-4.958,-4.9642,-4.968,-4.9721,-4.9778,-4.9864,-4.9917,-5.0023,-5.0107,-5.019,-5.023,-5.0231,-5.0235,-5.0253,-5.0246,-5.0229,-5.0237,-5.0058,-5.023,-5.0229,-5.0228,-5.0227,-5.0227,-4.9387,-4.9445,-4.951,-4.9589,-4.9638,-4.9696,-4.9756,-4.9796,-4.9868,-4.9955,-4.997,-5.0061,-5.0128,-5.0239,-5.0282,-5.0355,-5.0339,-5.0366,-5.0372,-5.0378,-5.0381,-5.0219,-5.037,-5.037,-5.037,-5.037,-5.0369,0,-4.9521,-4.9563,-4.9635,-4.972,-4.9783,-4.9779,-4.9848,-4.99,-4.998,-5.0041,-5.0109,-5.0208,-5.0289,-5.0343,-5.0426,-5.0473,-5.0476,-5.0494,-5.049,-5.0499,-5.0391,-5.0366,-5.049,-5.049,-5.049,-5.049,-5.049,-5.049,-4.9597,-4.9696,-4.9719,-4.9843,-4.9885,-4.9973,-5.0013,-5.0066,-5.0115,-5.0225,-5.0292,-5.0327,-5.0386,-5.0473,-5.0548,-5.0562,-5.0591,-5.0609,-5.0622,-5.0519,-5.0506,-5.0494,-5.0471,-5.0616,-5.0616,-5.0724,-5.0725,-5.0726]},{"header":{"parameterUnit":"m.s-1","parameterCategory":1,"la1":30.2991,"la2":30.254,"lo1":-89.0895,"lo2":-89.0444,"dy":0.0017,"dx":0.0017,"nx":28,"ny":28,"refTime":"2023-03-30T21:00:00:Z","depth":0,"parameterNumber":3,"parameterNumberName":"V-component_of_WINDS"},"data":[0,0,0,0,0,0,0,0,0,0,0,0,0,0,0,0,0,0,0,0,0,0,0,0,0,0,0,0,0,0,0,0,0,0,0,0,0,0,0,0,0,0,0,0,0,0,0,0,0,0,0,0,0,0,0,0,0,0,4.1171,4.1172,0,4.129,4.1291,4.1293,4.1301,4.13,4.1298,4.1297,4.1415,4.1419,4.1423,0,0,0,0,0,0,0,0,0,0,0,0,0,4.0949,4.0953,4.1171,4.1173,4.1174,4.129,4.1291,4.1293,4.1301,4.1299,4.1298,4.1296,4.1413,4.1418,4.1424,0,0,0,0,0,0,0,0,0,0,0,0,0,4.1054,4.0954,4.1171,4.1192,4.1195,4.1289,4.1291,4.1293,4.1301,4.1299,4.1297,4.1296,4.1412,4.1418,4.1424,4.1504,0,0,4.1444,4.1447,0,0,0,0,0,0,0,0,4.1048,4.1062,4.1187,4.1191,4.1194,4.1279,4.1256,4.1364,4.1302,4.1261,4.1297,4.1295,4.1371,4.1381,4.1407,4.151,4.1515,4.1445,4.1449,4.1452,4.1454,0,0,0,0,0,0,0,4.1041,4.1057,4.1218,4.1189,4.1194,4.1195,4.1208,4.1277,4.1325,4.1264,4.1265,4.1279,4.1372,4.1401,4.141,4.1517,4.1445,4.1451,4.1455,4.1457,4.1693,4.1695,0,0,0,0,0,0,4.103,4.1051,4.1214,4.1222,4.1115,4.1201,4.1215,4.1254,4.1325,4.1334,4.1281,4.1279,4.1391,4.1402,4.1414,4.1513,4.1452,4.1458,4.1462,4.169,4.1693,4.1696,0,0,0,0,0,0,4.1025,4.1044,4.1209,4.1137,4.1158,4.1207,4.125,4.1257,4.1285,4.1337,4.1346,4.1301,4.1389,4.1405,4.1483,4.1518,4.1461,4.1467,4.1688,4.1691,4.1694,4.1712,0,0,0,0,0,0,4.1019,4.1043,4.1074,4.1137,4.1162,4.1276,4.1252,4.1261,4.1297,4.1296,4.1359,4.1367,4.1389,4.1473,4.1489,4.1526,4.1472,4.1685,4.1689,4.1693,4.1708,4.1716,4.1722,0,0,0,0,0,4.1011,4.1073,4.1075,4.1095,4.1202,4.1278,4.1292,4.1318,4.13,4.1332,4.1365,4.1365,4.1511,4.1481,4.1499,4.1538,4.1683,4.1688,4.1693,4.1705,4.1714,4.1722,0,0,0,0,0,0,4.101,4.1081,4.1085,4.117,4.1218,4.128,4.132,4.1326,4.1379,4.1376,4.1404,4.1418,4.1495,4.1524,4.1489,4.162,4.1595,4.1604,4.1598,4.1607,4.1613,4.1604,4.1477,0,0,0,0,0,4.102,4.1077,4.1136,4.1205,4.1229,4.1271,4.1305,4.1321,4.1371,4.1392,4.1431,4.1479,4.1537,4.1573,4.1628,4.1713,4.1727,4.1749,4.1756,4.1761,4.1768,4.1816,4.1827,4.1713,4.1713,4.1713,0,0,4.104,4.1087,4.112,4.1206,4.1245,4.1304,4.1288,4.1349,4.1393,4.14,4.1477,4.1508,4.1564,4.1646,4.1683,4.1672,4.1803,4.1768,4.1771,4.1776,4.1823,4.1834,4.1843,4.1717,4.1716,4.1715,0,0,4.1108,4.1148,4.1211,4.1251,4.1312,4.134,4.1355,4.1417,4.1438,4.1515,4.1523,4.1575,4.1672,4.1712,4.1745,4.1831,4.1833,4.1848,4.1882,4.1929,4.1938,4.1946,4.1977,4.1988,4.1855,4.1855,4.1855,0,4.1125,4.1214,4.1242,4.1305,4.1342,4.1354,4.1418,4.1455,4.153,4.1556,4.1543,4.1667,4.1705,4.1797,4.1819,4.1845,4.1863,4.184,4.1935,4.1943,4.1951,4.1981,4.1992,4.1857,4.1856,4.1856,4.1856,0,4.1233,4.1294,4.1337,4.1412,4.1455,4.1517,4.1554,4.1594,4.1607,4.1636,4.1715,4.1762,4.1828,4.1851,4.1863,4.1945,4.1937,4.1929,4.1904,4.1963,4.1991,4.2003,4.1859,4.1858,4.1858,4.1857,0,0,4.1301,4.1392,4.1408,4.1442,4.1511,4.1559,4.1623,4.1689,4.1723,4.1775,4.1829,4.1912,4.1906,4.1944,4.1961,4.2002,4.2068,4.1989,4.1991,4.2002,4.2162,4.2168,4.2181,4.207,4.2072,4.2074,4.2158,0,4.1376,4.1491,4.1519,4.1617,4.1675,4.1688,4.1743,4.1792,4.1821,4.1874,4.1905,4.1965,4.1952,4.1975,4.2016,4.2051,4.21,4.2045,4.212,4.2122,4.2105,4.2196,4.2201,4.2278,4.2169,4.2171,4.2172,0,4.1479,4.1535,4.1639,4.1703,4.1728,4.1778,4.1842,4.1892,4.1947,4.1966,4.2009,4.2023,4.2089,4.2062,4.2155,4.2117,4.2149,4.2171,4.2175,4.2182,4.215,4.2206,4.2303,4.2315,4.219,4.2189,4.2187,0,4.1519,4.1621,4.1697,4.1726,4.1802,4.1837,4.1869,4.1923,4.1962,4.2017,4.2043,4.2105,4.2139,4.2186,4.2216,4.2193,4.2306,4.2281,4.2323,4.2323,4.2346,4.2344,4.245,4.2367,4.2367,4.2366,4.2366,0,4.16,4.1663,4.1716,4.1763,4.1834,4.1866,4.1936,4.1969,4.2017,4.207,4.2085,4.2134,4.2171,4.2226,4.2249,4.2323,4.2338,4.2354,4.236,4.2353,4.2351,4.2374,4.237,4.237,4.2369,4.2368,4.2368,0,4.1656,4.1694,4.1778,4.1844,4.1862,4.1912,4.1968,4.2014,4.2045,4.2112,4.2129,4.2177,4.2242,4.2277,4.2357,4.2374,4.2456,4.2458,4.2438,4.244,4.2481,4.2476,4.2605,4.2624,4.2528,4.2529,4.253,0,4.1705,4.1755,4.1827,4.1864,4.1899,4.1958,4.1999,4.2032,4.2073,4.2142,4.2179,4.2246,4.23,4.2404,4.2445,4.2507,4.2511,4.2552,4.2521,4.2513,4.2513,4.2509,4.2515,4.2558,4.2558,4.2559,4.256,0,4.1789,4.1806,4.1864,4.1929,4.1977,4.203,4.2082,4.2112,4.2154,4.2199,4.2267,4.231,4.2394,4.246,4.2526,4.2559,4.2567,4.257,4.2583,4.2576,4.2563,4.2571,4.2453,4.2566,4.2566,4.2565,4.2565,4.2565,4.1843,4.1888,4.1947,4.2012,4.2055,4.2104,4.2151,4.2188,4.2246,4.2318,4.2334,4.2406,4.2461,4.2551,4.2586,4.2643,4.2634,4.2653,4.2658,4.2662,4.2664,4.2554,4.2655,4.2654,4.2654,4.2654,4.2654,0,4.1928,4.1967,4.2026,4.21,4.2151,4.2156,4.2214,4.2256,4.2319,4.2371,4.2426,4.2504,4.2569,4.2616,4.2682,4.2718,4.2723,4.2734,4.2731,4.2739,4.2667,4.265,4.2729,4.2729,4.2729,4.2729,4.2729,4.2729,4.1978,4.2055,4.208,4.2179,4.2217,4.2288,4.2322,4.2367,4.2409,4.2496,4.2551,4.2582,4.2632,4.2702,4.2761,4.2774,4.2797,4.2808,4.282,4.2752,4.2744,4.2736,4.272,4.2813,4.2813,4.2888,4.2888,4.2889]}]]